Location: G�ppingen
(48.7089°N, 9.6563°E)
Time: 09:58:39
(UTC+01:00)

Tiangong 1 - Visible Passes

Search period start: 22 November 2017 00:00
Search period end: 02 December 2017 00:00
Orbit: 284 x 308 km, 42.8° (Epoch: 21 November)

Date Brightness Start Highest point End Pass type
(mag) Time Alt. Az. Time Alt. Az. Time Alt. Az.
27 Nov 3.2 18:00:53 10° S 18:01:59 12° SSE 18:02:28 12° SSE visible
28 Nov 2.8 18:06:11 10° SSW 18:07:54 16° SSE 18:08:19 16° SSE visible
29 Nov 2.6 18:11:45 10° SW 18:13:45 20° S 18:14:01 19° SSE visible
30 Nov 2.5 18:17:22 10° SW 18:19:28 21° S 18:19:37 21° S visible
01 Dec 2.6 18:23:01 10° WSW 18:25:04 21° S 18:25:07 21° S visible
